QPF
0.01 0.01 0.00 0.00 0.00 0.00 0.00 0.00 0.00 0.00 0.00 0.00 0.00 0.00 0.00 0.00 0.00 0.00 0.00 0.00 0.00 0.00 0.00 0.00 0.00 0.00 0.00 0.00 0.00 0.01 0.01 0.02 0.03 0.02 0.02 0.02 0.03 0.03 0.03 0.03 0.03 0.03 0.04
0.01 0.01 0.01 0.00 0.00 0.00 0.00 0.00 0.00 0.00 0.00 0.00 0.00 0.00 0.00 0.00 0.00 0.00 0.00 0.00 0.01 0.01 0.01 0.01 0.00 0.00 0.00 0.00 0.00 0.01 0.02 0.03 0.04 0.04 0.03 0.02 0.03 0.03 0.03 0.03 0.02 0.02 0.04
0.03 0.02 0.01 0.00 0.00 0.00 0.00 0.00 0.00 0.00 0.00 0.00 0.00 0.00 0.00 0.00 0.00 0.01 0.01 0.01 0.01 0.01 0.01 0.01 0.00 0.00 0.00 0.00 0.01 0.01 0.02 0.03 0.05 0.05 0.04 0.03 0.02 0.02 0.03 0.03 0.03 0.04 0.03
0.03 0.01 0.00 0.00 0.00 0.00 0.00 0.00 0.00 0.00 0.00 0.00 0.00 0.00 0.01 0.01 0.01 0.01 0.01 0.01 0.01 0.01 0.01 0.00 0.00 0.00 0.01 0.01 0.01 0.02 0.03 0.04 0.05 0.05 0.04 0.03 0.02 0.03 0.04 0.05 0.05 0.05 0.04
0.01 0.00 0.00 0.00 0.00 0.00 0.00 0.00 0.00 0.00 0.00 0.00 0.01 0.01 0.01 0.01 0.01 0.00 0.00 0.00 0.00 0.00 0.00 0.00 0.00 0.00 0.01 0.01 0.02 0.03 0.04 0.05 0.05 0.05 0.04 0.03 0.02 0.03 0.05 0.06 0.06 0.05 0.04
0.02 0.01 0.01 0.00 0.00 0.00 0.00 0.00 0.01 0.01 0.01 0.01 0.01 0.01 0.01 0.00 0.00 0.00 0.00 0.00 0.00 0.00 0.00 0.00 0.00 0.00 0.01 0.01 0.01 0.02 0.03 0.04 0.06 0.06 0.06 0.04 0.03 0.04 0.06 0.07 0.07 0.06 0.04
0.02 0.00 0.00 0.00 0.00 0.00 0.00 0.01 0.01 0.01 0.01 0.01 0.00 0.00 0.00 0.00 0.00 0.00 0.00 0.00 0.00 0.00 0.00 0.00 0.00 0.00 0.00 0.01 0.01 0.01 0.01 0.03 0.06 0.09 0.10 0.08 0.06 0.06 0.09 0.09 0.07 0.06 0.05
0.01 0.00 0.00 0.00 0.00 0.01 0.01 0.01 0.00 0.00 0.00 0.00 0.00 0.00 0.00 0.00 0.00 0.00 0.00 0.00 0.00 0.00 0.01 0.01 0.01 0.01 0.01 0.01 0.02 0.02 0.02 0.04 0.08 0.09 0.11 0.10 0.08 0.08 0.08 0.08 0.08 0.06 0.04
0.01 0.00 0.00 0.00 0.00 0.00 0.00 0.00 0.00 0.00 0.00 0.00 0.00 0.00 0.00 0.00 0.00 0.00 0.00 0.00 0.00 0.00 0.00 0.01 0.01 0.01 0.01 0.02 0.02 0.03 0.04 0.06 0.10 0.13 0.13 0.11 0.09 0.07 0.06 0.05 0.05 0.04 0.03
0.00 0.00 0.00 0.00 0.00 0.00 0.00 0.00 0.00 0.00 0.00 0.00 0.00 0.00 0.00 0.00 0.00 0.00 0.00 0.00 0.00 0.00 0.00 0.00 0.01 0.01 0.01 0.03 0.04 0.05 0.06 0.08 0.11 0.13 0.13 0.10 0.07 0.04 0.03 0.03 0.03 0.03 0.03
0.00 0.00 0.00 0.00 0.00 0.00 0.00 0.00 0.00 0.00 0.00 0.00 0.00 0.00 0.01 0.00 0.00 0.00 0.00 0.01 0.01 0.01 0.01 0.01 0.01 0.02 0.03 0.05 0.06 0.06 0.08 0.09 0.10 0.11 0.09 0.06 0.04 0.03 0.02 0.02 0.02 0.02 0.02
0.00 0.00 0.00 0.00 0.00 0.00 0.00 0.00 0.00 0.00 0.00 0.00 0.00 0.00 0.00 0.00 0.00 0.00 0.00 0.00 0.01 0.01 0.02 0.02 0.03 0.06 0.08 0.09 0.09 0.09 0.10 0.10 0.09 0.08 0.06 0.04 0.03 0.02 0.02 0.02 0.02 0.02 0.02
0.00 0.00 0.00 0.00 0.00 0.00 0.00 0.00 0.00 0.00 0.00 0.00 0.01 0.01 0.01 0.01 0.00 0.00 0.00 0.00 0.01 0.01 0.02 0.04 0.06 0.10 0.13 0.14 0.14 0.12 0.11 0.09 0.07 0.05 0.03 0.03 0.03 0.03 0.04 0.04 0.03 0.03 0.02
0.00 0.00 0.00 0.00 0.00 0.00 0.00 0.00 0.00 0.00 0.01 0.01 0.01 0.01 0.01 0.01 0.01 0.01 0.01 0.01 0.01 0.01 0.03 0.06 0.11 0.14 0.16 0.16 0.14 0.11 0.09 0.07 0.04 0.02 0.03 0.03 0.04 0.04 0.05 0.04 0.04 0.03 0.03
0.00 0.00 0.00 0.00 0.00 0.00 0.00 0.00 0.00 0.01 0.01 0.01 0.02 0.02 0.02 0.02 0.01 0.02 0.02 0.02 0.02 0.02 0.04 0.06 0.09 0.11 0.13 0.11 0.09 0.08 0.07 0.04 0.03 0.03 0.03 0.04 0.05 0.05 0.05 0.05 0.04 0.03 0.03
0.00 0.00 0.00 0.00 0.00 0.00 0.00 0.00 0.00 0.00 0.00 0.00 0.01 0.01 0.01 0.01 0.01 0.01 0.02 0.02 0.02 0.04 0.05 0.08 0.11 0.12 0.12 0.10 0.08 0.06 0.04 0.03 0.03 0.03 0.04 0.04 0.05 0.05 0.05 0.04 0.04 0.03 0.03
0.00 0.00 0.00 0.00 0.00 0.00 0.00 0.00 0.01 0.01 0.00 0.00 0.00 0.01 0.01 0.01 0.01 0.01 0.01 0.02 0.02 0.04 0.05 0.08 0.11 0.13 0.12 0.10 0.07 0.05 0.04 0.04 0.04 0.04 0.04 0.04 0.05 0.05 0.05 0.05 0.05 0.04 0.04
0.00 0.00 0.00 0.00 0.00 0.00 0.00 0.00 0.01 0.01 0.02 0.02 0.01 0.01 0.00 0.00 0.01 0.01 0.01 0.01 0.02 0.03 0.06 0.09 0.11 0.12 0.11 0.09 0.07 0.06 0.05 0.05 0.04 0.04 0.05 0.05 0.05 0.05 0.05 0.05 0.05 0.04 0.03
0.00 0.00 0.00 0.00 0.00 0.00 0.00 0.00 0.01 0.01 0.02 0.02 0.01 0.01 0.01 0.01 0.01 0.01 0.01 0.01 0.03 0.05 0.07 0.08 0.09 0.09 0.09 0.08 0.07 0.06 0.05 0.05 0.05 0.05 0.05 0.05 0.06 0.06 0.05 0.04 0.04 0.03 0.02
0.00 0.00 0.00 0.00 0.00 0.00 0.00 0.00 0.01 0.01 0.01 0.02 0.02 0.01 0.01 0.01 0.01 0.01 0.01 0.02 0.03 0.05 0.06 0.06 0.07 0.07 0.07 0.07 0.07 0.06 0.05 0.05 0.05 0.05 0.05 0.05 0.06 0.05 0.05 0.04 0.03 0.02 0.02
0.00 0.00 0.00 0.00 0.00 0.00 0.00 0.00 0.00 0.01 0.01 0.02 0.02 0.01 0.01 0.02 0.02 0.02 0.03 0.04 0.04 0.05 0.05 0.04 0.04 0.05 0.05 0.06 0.06 0.06 0.05 0.05 0.05 0.05 0.05 0.05 0.05 0.05 0.05 0.04 0.03 0.02 0.01
0.00 0.00 0.00 0.00 0.00 0.00 0.00 0.00 0.00 0.00 0.01 0.01 0.01 0.01 0.01 0.01 0.02 0.02 0.03 0.04 0.05 0.06 0.05 0.04 0.03 0.03 0.04 0.04 0.04 0.04 0.04 0.05 0.05 0.05 0.05 0.05 0.05 0.05 0.04 0.03 0.02 0.02 0.01
0.00 0.00 0.00 0.00 0.00 0.00 0.00 0.00 0.00 0.00 0.00 0.00 0.00 0.01 0.01 0.01 0.02 0.02 0.03 0.04 0.05 0.04 0.04 0.03 0.03 0.03 0.03 0.04 0.04 0.04 0.04 0.04 0.04 0.05 0.05 0.05 0.05 0.04 0.04 0.03 0.02 0.02 0.01
0.00 0.00 0.00 0.00 0.00 0.00 0.00 0.00 0.00 0.00 0.00 0.00 0.00 0.00 0.01 0.01 0.02 0.03 0.04 0.04 0.05 0.05 0.04 0.04 0.04 0.04 0.03 0.03 0.03 0.03 0.03 0.03 0.04 0.05 0.05 0.05 0.04 0.04 0.03 0.02 0.02 0.01 0.01
0.00 0.00 0.00 0.00 0.00 0.00 0.00 0.00 0.00 0.00 0.00 0.00 0.00 0.00 0.00 0.00 0.01 0.02 0.04 0.05 0.05 0.05 0.05 0.04 0.03 0.04 0.03 0.02 0.01 0.01 0.02 0.02 0.02 0.04 0.05 0.05 0.04 0.03 0.02 0.02 0.01 0.01 0.01
0.00 0.00 0.00 0.00 0.00 0.00 0.00 0.00 0.00 0.00 0.00 0.00 0.00 0.00 0.00 0.00 0.00 0.01 0.02 0.03 0.04 0.05 0.05 0.05 0.05 0.03 0.02 0.02 0.01 0.01 0.01 0.01 0.01 0.01 0.04 0.05 0.04 0.03 0.02 0.02 0.01 0.01 0.01
MSLP
1017.34 1017.79 1018.25 1018.68 1019.04 1019.30 1019.46 1019.52 1019.51 1019.45 1019.38 1019.31 1019.27 1019.23 1019.20 1019.14 1019.06 1018.93 1018.76 1018.56 1018.35 1018.15 1017.98 1017.84 1017.72 1017.60 1017.47 1017.27 1016.98 1016.59 1016.08 1015.46 1014.75 1014.00 1013.22 1012.48 1011.80 1011.21 1010.71 1010.31 1010.01 1009.78 1009.61
1017.39 1017.82 1018.25 1018.64 1018.96 1019.18 1019.29 1019.31 1019.26 1019.17 1019.07 1018.97 1018.90 1018.84 1018.78 1018.72 1018.62 1018.48 1018.30 1018.08 1017.85 1017.63 1017.43 1017.27 1017.15 1017.04 1016.93 1016.77 1016.55 1016.22 1015.78 1015.22 1014.56 1013.82 1013.04 1012.25 1011.51 1010.83 1010.24 1009.76 1009.38 1009.10 1008.91
1017.44 1017.84 1018.22 1018.56 1018.83 1019.01 1019.08 1019.07 1019.00 1018.88 1018.76 1018.66 1018.57 1018.51 1018.45 1018.38 1018.28 1018.14 1017.95 1017.71 1017.46 1017.21 1016.97 1016.78 1016.62 1016.49 1016.38 1016.24 1016.05 1015.78 1015.39 1014.89 1014.27 1013.56 1012.78 1011.97 1011.18 1010.45 1009.81 1009.27 1008.85 1008.54 1008.35
1017.51 1017.86 1018.19 1018.48 1018.69 1018.83 1018.87 1018.84 1018.76 1018.64 1018.52 1018.42 1018.35 1018.30 1018.25 1018.19 1018.10 1017.96 1017.76 1017.51 1017.23 1016.93 1016.64 1016.38 1016.17 1015.99 1015.84 1015.69 1015.50 1015.25 1014.90 1014.43 1013.85 1013.17 1012.40 1011.60 1010.80 1010.05 1009.38 1008.82 1008.39 1008.10 1007.92
1017.61 1017.91 1018.18 1018.41 1018.58 1018.68 1018.71 1018.67 1018.59 1018.49 1018.39 1018.31 1018.26 1018.22 1018.20 1018.16 1018.08 1017.94 1017.74 1017.47 1017.14 1016.79 1016.43 1016.09 1015.78 1015.53 1015.31 1015.10 1014.89 1014.62 1014.28 1013.84 1013.28 1012.63 1011.89 1011.11 1010.33 1009.59 1008.93 1008.39 1007.99 1007.72 1007.58
1017.76 1018.00 1018.22 1018.40 1018.53 1018.61 1018.63 1018.60 1018.53 1018.45 1018.38 1018.32 1018.29 1018.29 1018.28 1018.25 1018.18 1018.04 1017.82 1017.51 1017.14 1016.71 1016.27 1015.83 1015.42 1015.06 1014.74 1014.46 1014.19 1013.89 1013.54 1013.10 1012.58 1011.96 1011.26 1010.52 1009.78 1009.08 1008.47 1007.98 1007.62 1007.40 1007.29
1017.97 1018.15 1018.31 1018.45 1018.56 1018.63 1018.65 1018.63 1018.58 1018.52 1018.47 1018.44 1018.43 1018.43 1018.43 1018.40 1018.32 1018.16 1017.91 1017.56 1017.12 1016.62 1016.08 1015.54 1015.02 1014.54 1014.12 1013.75 1013.41 1013.07 1012.70 1012.28 1011.78 1011.21 1010.56 1009.88 1009.21 1008.57 1008.02 1007.59 1007.29 1007.11 1007.05
1018.20 1018.34 1018.47 1018.59 1018.68 1018.75 1018.78 1018.77 1018.74 1018.70 1018.66 1018.63 1018.62 1018.61 1018.59 1018.54 1018.43 1018.23 1017.93 1017.53 1017.02 1016.43 1015.80 1015.16 1014.53 1013.96 1013.44 1012.99 1012.59 1012.22 1011.85 1011.44 1010.98 1010.46 1009.89 1009.28 1008.69 1008.13 1007.65 1007.29 1007.04 1006.91 1006.87
1018.46 1018.57 1018.68 1018.79 1018.89 1018.96 1018.99 1019.00 1018.98 1018.94 1018.90 1018.86 1018.82 1018.78 1018.72 1018.62 1018.45 1018.19 1017.83 1017.35 1016.77 1016.11 1015.40 1014.67 1013.97 1013.31 1012.73 1012.23 1011.80 1011.41 1011.05 1010.68 1010.28 1009.83 1009.34 1008.83 1008.32 1007.84 1007.44 1007.13 1006.93 1006.83 1006.81
1018.73 1018.83 1018.94 1019.05 1019.16 1019.24 1019.29 1019.30 1019.28 1019.24 1019.18 1019.10 1019.02 1018.92 1018.79 1018.62 1018.37 1018.04 1017.60 1017.05 1016.41 1015.68 1014.90 1014.12 1013.36 1012.67 1012.05 1011.54 1011.11 1010.74 1010.42 1010.11 1009.78 1009.42 1009.02 1008.60 1008.17 1007.77 1007.43 1007.18 1007.01 1006.93 1006.91
1019.00 1019.10 1019.23 1019.35 1019.47 1019.56 1019.62 1019.64 1019.62 1019.56 1019.46 1019.35 1019.20 1019.03 1018.82 1018.56 1018.23 1017.81 1017.29 1016.68 1015.97 1015.20 1014.38 1013.58 1012.80 1012.10 1011.50 1011.00 1010.60 1010.29 1010.03 1009.79 1009.54 1009.27 1008.97 1008.63 1008.28 1007.95 1007.66 1007.44 1007.30 1007.22 1007.20
1019.27 1019.39 1019.53 1019.68 1019.81 1019.91 1019.98 1020.00 1019.96 1019.88 1019.76 1019.59 1019.39 1019.14 1018.85 1018.50 1018.07 1017.57 1016.98 1016.31 1015.56 1014.75 1013.93 1013.13 1012.37 1011.70 1011.14 1010.69 1010.35 1010.10 1009.91 1009.75 1009.59 1009.41 1009.18 1008.92 1008.64 1008.36 1008.10 1007.90 1007.77 1007.69 1007.67
1019.55 1019.70 1019.85 1020.01 1020.15 1020.26 1020.33 1020.34 1020.30 1020.21 1020.05 1019.85 1019.59 1019.27 1018.90 1018.47 1017.97 1017.40 1016.74 1016.02 1015.25 1014.44 1013.63 1012.85 1012.14 1011.52 1011.02 1010.63 1010.36 1010.18 1010.07 1009.98 1009.89 1009.77 1009.61 1009.40 1009.16 1008.91 1008.68 1008.49 1008.36 1008.28 1008.26
1019.86 1020.01 1020.17 1020.33 1020.47 1020.58 1020.64 1020.66 1020.62 1020.51 1020.34 1020.11 1019.81 1019.45 1019.02 1018.52 1017.96 1017.33 1016.64 1015.89 1015.11 1014.31 1013.53 1012.80 1012.14 1011.59 1011.15 1010.83 1010.63 1010.51 1010.45 1010.41 1010.37 1010.29 1010.16 1009.98 1009.77 1009.53 1009.31 1009.12 1008.98 1008.91 1008.90
1020.18 1020.33 1020.48 1020.62 1020.75 1020.85 1020.91 1020.92 1020.88 1020.78 1020.61 1020.37 1020.05 1019.66 1019.20 1018.67 1018.07 1017.41 1016.70 1015.94 1015.17 1014.40 1013.66 1012.98 1012.38 1011.90 1011.52 1011.26 1011.10 1011.02 1010.98 1010.97 1010.93 1010.86 1010.74 1010.57 1010.35 1010.12 1009.90 1009.70 1009.57 1009.50 1009.50
1020.52 1020.65 1020.77 1020.88 1020.98 1021.06 1021.11 1021.13 1021.10 1021.01 1020.85 1020.62 1020.31 1019.92 1019.46 1018.91 1018.30 1017.63 1016.91 1016.17 1015.42 1014.69 1014.00 1013.38 1012.84 1012.41 1012.08 1011.86 1011.72 1011.64 1011.61 1011.57 1011.52 1011.43 1011.28 1011.09 1010.86 1010.62 1010.38 1010.19 1010.06 1010.00 1010.03
1020.86 1020.94 1021.01 1021.08 1021.14 1021.20 1021.25 1021.27 1021.26 1021.19 1021.06 1020.86 1020.58 1020.21 1019.76 1019.23 1018.62 1017.97 1017.27 1016.55 1015.84 1015.16 1014.52 1013.95 1013.47 1013.08 1012.78 1012.57 1012.43 1012.34 1012.26 1012.18 1012.08 1011.94 1011.76 1011.53 1011.27 1011.01 1010.77 1010.58 1010.46 1010.42 1010.47
1021.19 1021.21 1021.22 1021.24 1021.26 1021.30 1021.34 1021.37 1021.38 1021.35 1021.26 1021.10 1020.86 1020.53 1020.11 1019.60 1019.03 1018.40 1017.74 1017.06 1016.39 1015.76 1015.18 1014.66 1014.22 1013.86 1013.58 1013.37 1013.20 1013.06 1012.93 1012.79 1012.62 1012.42 1012.17 1011.90 1011.62 1011.34 1011.10 1010.91 1010.80 1010.78 1010.86
1021.48 1021.43 1021.38 1021.35 1021.35 1021.37 1021.41 1021.45 1021.49 1021.50 1021.46 1021.35 1021.16 1020.87 1020.50 1020.03 1019.50 1018.91 1018.29 1017.66 1017.05 1016.47 1015.94 1015.47 1015.07 1014.73 1014.44 1014.21 1014.00 1013.81 1013.61 1013.39 1013.15 1012.87 1012.58 1012.26 1011.96 1011.67 1011.43 1011.25 1011.16 1011.15 1011.25
1021.73 1021.62 1021.53 1021.46 1021.43 1021.44 1021.49 1021.56 1021.63 1021.68 1021.69 1021.63 1021.49 1021.25 1020.92 1020.51 1020.02 1019.48 1018.91 1018.34 1017.78 1017.25 1016.77 1016.34 1015.96 1015.63 1015.34 1015.08 1014.83 1014.57 1014.30 1014.01 1013.69 1013.36 1013.01 1012.66 1012.34 1012.05 1011.82 1011.66 1011.59 1011.60 1011.71
1021.95 1021.79 1021.66 1021.57 1021.53 1021.55 1021.61 1021.71 1021.82 1021.91 1021.96 1021.96 1021.86 1021.67 1021.39 1021.03 1020.59 1020.10 1019.58 1019.06 1018.55 1018.07 1017.63 1017.23 1016.88 1016.55 1016.25 1015.96 1015.66 1015.34 1015.01 1014.65 1014.27 1013.88 1013.50 1013.14 1012.81 1012.53 1012.32 1012.18 1012.13 1012.16 1012.27
1022.15 1021.97 1021.82 1021.72 1021.68 1021.71 1021.80 1021.92 1022.06 1022.20 1022.29 1022.32 1022.27 1022.13 1021.89 1021.57 1021.18 1020.73 1020.26 1019.79 1019.33 1018.89 1018.49 1018.11 1017.77 1017.45 1017.13 1016.80 1016.46 1016.09 1015.70 1015.30 1014.87 1014.45 1014.05 1013.68 1013.36 1013.10 1012.92 1012.81 1012.78 1012.82 1012.93
1022.37 1022.18 1022.03 1021.93 1021.91 1021.95 1022.06 1022.21 1022.37 1022.53 1022.65 1022.71 1022.69 1022.58 1022.38 1022.10 1021.75 1021.35 1020.92 1020.49 1020.07 1019.66 1019.29 1018.94 1018.60 1018.27 1017.93 1017.58 1017.20 1016.80 1016.37 1015.92 1015.47 1015.04 1014.63 1014.27 1013.97 1013.74 1013.59 1013.51 1013.50 1013.55 1013.66
1022.62 1022.43 1022.29 1022.21 1022.20 1022.26 1022.38 1022.54 1022.72 1022.89 1023.03 1023.11 1023.10 1023.02 1022.84 1022.59 1022.27 1021.91 1021.52 1021.13 1020.74 1020.36 1020.00 1019.66 1019.33 1018.99 1018.63 1018.26 1017.85 1017.42 1016.97 1016.50 1016.04 1015.60 1015.20 1014.86 1014.59 1014.39 1014.27 1014.22 1014.23 1014.29 1014.40
1022.92 1022.75 1022.62 1022.56 1022.56 1022.63 1022.75 1022.91 1023.09 1023.26 1023.39 1023.47 1023.47 1023.40 1023.25 1023.02 1022.73 1022.40 1022.05 1021.68 1021.32 1020.96 1020.62 1020.28 1019.94 1019.59 1019.23 1018.83 1018.41 1017.96 1017.49 1017.02 1016.56 1016.13 1015.74 1015.43 1015.18 1015.01 1014.92 1014.89 1014.92 1014.99 1015.09
1023.28 1023.13 1023.02 1022.97 1022.98 1023.04 1023.16 1023.31 1023.47 1023.62 1023.73 1023.80 1023.80 1023.73 1023.59 1023.38 1023.13 1022.83 1022.50 1022.16 1021.82 1021.49 1021.15 1020.82 1020.48 1020.12 1019.74 1019.32 1018.89 1018.43 1017.95 1017.48 1017.03 1016.61 1016.25 1015.95 1015.73 1015.58 1015.50 1015.49 1015.53 1015.60 1015.70
Thickness
5610 5602 5594 5586 5579 5571 5565 5559 5553 5548 5542 5536 5532 5526 5521 5516 5510 5504 5498 5492 5487 5482 5477 5473 5468 5463 5458 5454 5450 5448 5445 5442 5443 5447 5444 5445 5445 5447 5450 5452 5455 5458 5462
5599 5590 5582 5573 5566 5560 5554 5548 5542 5537 5531 5526 5521 5516 5511 5506 5500 5494 5488 5483 5478 5473 5467 5462 5456 5450 5445 5440 5436 5434 5431 5428 5428 5431 5433 5435 5437 5439 5442 5444 5448 5452 5454
5587 5578 5570 5562 5556 5549 5543 5536 5531 5526 5521 5516 5512 5507 5502 5497 5491 5485 5479 5473 5467 5461 5455 5449 5442 5436 5432 5428 5424 5422 5420 5420 5419 5421 5425 5427 5430 5434 5437 5440 5443 5445 5448
5574 5567 5559 5552 5545 5538 5533 5527 5521 5516 5511 5507 5502 5497 5492 5486 5481 5475 5468 5462 5455 5449 5443 5436 5430 5426 5422 5418 5416 5413 5412 5412 5412 5414 5418 5422 5427 5431 5433 5435 5438 5441 5443
5561 5555 5548 5540 5534 5528 5523 5517 5512 5507 5502 5498 5492 5486 5480 5475 5467 5456 5450 5447 5442 5437 5431 5425 5421 5417 5413 5409 5408 5407 5406 5406 5407 5410 5414 5419 5424 5427 5430 5432 5434 5437 5440
5547 5542 5536 5530 5524 5519 5513 5508 5503 5497 5492 5486 5480 5473 5467 5460 5444 5435 5429 5430 5428 5425 5422 5417 5414 5411 5409 5406 5403 5402 5401 5403 5406 5408 5412 5416 5422 5426 5428 5430 5431 5433 5438
5535 5530 5526 5520 5515 5510 5505 5500 5493 5486 5479 5472 5464 5458 5451 5442 5430 5422 5416 5413 5416 5414 5411 5408 5406 5406 5403 5404 5403 5402 5402 5404 5405 5407 5412 5417 5422 5426 5428 5431 5433 5435 5438
5525 5520 5515 5510 5505 5499 5493 5486 5478 5471 5464 5457 5450 5443 5436 5430 5419 5410 5405 5406 5407 5405 5403 5402 5401 5401 5402 5401 5401 5402 5405 5408 5409 5411 5414 5419 5424 5428 5430 5432 5434 5435 5435
5514 5509 5504 5498 5492 5486 5478 5469 5462 5457 5450 5444 5438 5431 5424 5418 5409 5401 5396 5398 5400 5399 5398 5399 5399 5400 5400 5399 5400 5404 5408 5412 5413 5415 5417 5421 5425 5429 5432 5434 5436 5438 5440
5502 5496 5489 5483 5476 5469 5461 5455 5449 5443 5438 5432 5426 5420 5413 5407 5400 5394 5389 5392 5393 5393 5395 5397 5399 5399 5400 5401 5403 5407 5411 5414 5416 5418 5421 5424 5428 5431 5434 5436 5439 5441 5443
5488 5481 5474 5468 5461 5454 5448 5442 5436 5431 5424 5419 5414 5410 5405 5399 5395 5390 5386 5386 5387 5388 5392 5396 5399 5400 5402 5405 5409 5412 5415 5416 5417 5420 5423 5426 5429 5431 5433 5435 5437 5439 5440
5476 5469 5462 5455 5450 5444 5437 5431 5424 5417 5414 5408 5404 5400 5397 5393 5389 5387 5384 5383 5383 5387 5392 5396 5399 5401 5405 5409 5414 5416 5417 5418 5419 5422 5425 5427 5429 5430 5430 5432 5433 5434 5434
5465 5458 5451 5444 5438 5432 5427 5421 5414 5407 5402 5397 5393 5391 5389 5387 5385 5383 5382 5383 5385 5388 5392 5396 5400 5404 5407 5411 5413 5416 5418 5420 5422 5424 5426 5427 5427 5427 5429 5430 5431 5431 5431
5455 5448 5442 5437 5431 5421 5415 5409 5402 5395 5391 5386 5383 5381 5381 5381 5380 5379 5379 5383 5386 5390 5394 5398 5402 5405 5408 5411 5414 5416 5419 5421 5423 5424 5424 5425 5426 5427 5429 5430 5432 5432 5431
5446 5441 5435 5429 5421 5412 5404 5395 5390 5383 5377 5373 5373 5371 5373 5374 5372 5371 5373 5379 5382 5387 5393 5399 5403 5407 5410 5412 5414 5416 5418 5421 5422 5423 5424 5425 5426 5428 5430 5432 5433 5433 5432
5440 5434 5429 5421 5412 5406 5398 5390 5379 5374 5370 5366 5364 5363 5367 5366 5367 5370 5374 5378 5382 5387 5393 5398 5402 5406 5410 5413 5415 5417 5418 5419 5420 5422 5423 5425 5427 5429 5432 5434 5436 5436 5435
5429 5423 5419 5412 5405 5397 5390 5384 5378 5372 5368 5365 5363 5361 5362 5363 5366 5369 5373 5378 5382 5387 5393 5396 5400 5404 5408 5412 5415 5416 5417 5417 5418 5421 5422 5424 5428 5431 5434 5437 5438 5439 5437
5421 5411 5408 5402 5395 5389 5383 5378 5373 5369 5366 5364 5362 5360 5361 5362 5365 5368 5372 5378 5382 5386 5389 5393 5398 5403 5407 5411 5413 5415 5415 5416 5417 5419 5422 5425 5429 5432 5435 5438 5439 5440 5439
5414 5407 5400 5395 5390 5384 5379 5374 5369 5364 5361 5359 5358 5359 5359 5362 5364 5366 5370 5374 5377 5381 5386 5391 5396 5401 5406 5409 5412 5413 5414 5415 5417 5419 5423 5427 5431 5435 5438 5440 5440 5436 5439
5403 5390 5392 5391 5387 5382 5376 5371 5365 5361 5358 5354 5353 5352 5355 5360 5362 5364 5366 5369 5373 5377 5383 5388 5394 5399 5403 5408 5411 5412 5413 5415 5417 5420 5424 5428 5432 5436 5439 5441 5442 5442 5440
5406 5396 5387 5390 5384 5378 5374 5368 5363 5358 5355 5352 5350 5348 5348 5355 5357 5359 5362 5365 5369 5374 5379 5386 5391 5397 5401 5406 5410 5412 5413 5415 5417 5420 5425 5429 5434 5437 5440 5442 5443 5443 5442
5404 5397 5391 5387 5380 5374 5371 5366 5361 5356 5353 5351 5349 5349 5348 5351 5354 5357 5360 5363 5367 5372 5377 5383 5389 5394 5399 5403 5407 5411 5413 5415 5418 5421 5426 5430 5434 5438 5440 5442 5443 5444 5444
5402 5397 5391 5385 5380 5372 5371 5365 5360 5355 5352 5349 5348 5347 5348 5349 5351 5354 5357 5361 5366 5371 5376 5382 5387 5392 5398 5402 5405 5409 5412 5415 5418 5422 5427 5431 5434 5437 5439 5440 5442 5444 5443
5402 5396 5390 5384 5379 5373 5369 5364 5360 5356 5352 5349 5348 5348 5348 5349 5351 5353 5356 5360 5365 5370 5375 5380 5385 5390 5396 5401 5406 5409 5411 5414 5418 5422 5427 5431 5435 5437 5438 5439 5440 5441 5440
5402 5395 5389 5383 5377 5373 5368 5363 5359 5355 5353 5351 5350 5350 5350 5352 5353 5355 5357 5361 5365 5370 5375 5379 5384 5389 5394 5399 5403 5407 5410 5414 5418 5422 5427 5432 5435 5436 5438 5439 5440 5440 5440
5402 5396 5390 5383 5377 5372 5367 5363 5359 5356 5353 5352 5351 5351 5352 5353 5354 5356 5359 5362 5366 5371 5375 5379 5383 5388 5393 5398 5402 5406 5411 5415 5419 5423 5428 5431 5434 5436 5437 5438 5438 5438 5438